Showing default

O3B FM19, 44113

Orbit data source: Space-Track

O3B FM19, 44113 is a payload satellite owned by O3B SES (JE) that was launched on Thu, 04 Apr 2019 UTC via a SOYUZ-ST-B launch vehicle from the French Guiana (FRGUI). Payload-class satellites include a variety of spacecraft equipped with specific instruments for various scientific and technological missions. These include communications satellites like Starlink; space stations such as the ISS; scientific satellites like the Hubble; Earth observation satellites from companies like Planet Labs, Umbra, and HawkEye 360; GPS; miniature CubeSats for education and research; and military/defense satellites.

Loading next visibility...
Identifier
44113, 2019-020B
Orbit
Active
Country
Flag of UnknownUnknown / O3B
Related business
Manufacturer
Thales Alenia
Mission
Operational Commercial Communications
Bus & Motor
PRISMA?, LS-400 AOCS?
Mass
700 kg wet, ~500 kg dry
Launch date (UTC)
2019-04-04 (7 years ago)
Launch vehicle
SOYUZ-ST-B
Launch site
French Guiana (FRGUI)
Object type
Payload
Rocket body
Debris
Shape & HBR
Trap Box + 2 Pan, 6.0 m
Radar Cross Section
21.980 m², Large (>1 m²)

Expand to show TLE details & history
Last TLE update: 2 days ago

TLE from 2 days ago
0 O3B FM19
1 44113U 19020B   25291.37158787 -.00000027  00000-0  00000-0 0  9990
2 44113   0.0463  19.8815 0003415 239.9062 100.1779  5.00115560119340
Epoch: 2025-10-18T08:55Z
TLE epoch observation values (Epoch: 2025-10-18T08:55:05.191Z)
Latitude
-0.01275°
Longitude
-160.87524°
Altitude
8,065.248 km
Speed
5.254 km/s
True Right ascension
23h 59m 59s
True Declination
0° 00' 46"
Sunlit
Object was in full shadow at epoch
Visualization orbit readout
Latitude
Unknown
Longitude
Unknown
Altitude
Unknown
Speed
Unknown
Apparent Right ascension
Unknown
Apparent Declination
Unknown
Sunlit
N/A
Visualization observer readout
Local Sidereal Time
08:34:07
Azimuth
Unknown
Elevation
Unknown
Doppler factor
Unknown
Orbital elements
Apogee altitude
8,073.881 km
Perigee altitude
8,064.014 km
Semi-major axis
14,447.085 km
Eccentricity
0.00034
Inclination
0.0463°
RAAN
19.8815°
Arg. of periapsis
239.9062°
True anomaly
100.21641°
Mean anomaly
100.1779°
Eccentric anomaly
100.19716°
Mean motion
1.24989 °/min
Orbital period
288.02 mins
BSTAR
0
Loading maneuver chart data...
Computing Atmospheric mass density...
Loading historical data...
Loading historical data...
Loading historical data...
Loading historical data...
Loading historical data...
Loading historical data...
Loading historical data...
Other satellites on launch #20 in the year 2019 (2019-04-04 UTC)

Documentation

Showing up to 5 results
|